Regional Weather Roundup
Issued by NWS Sioux Falls, SD

Home | Current Version | Previous Version | Text Only | Print | Product List | Glossary On
Versions: 1 2 3 4 5 6 7 8 9 10 11 12 13 14 15 16 17 18 19 20 21 22 23 24 25 26 27 28 29 30 31 32 33 34 35 36 37 38 39 40 41 42 43 44 45 46 47 48 49 50
000
ASUS43 KFSD 282110
RWRFSD

WEATHER ROUNDUP FOR SE SOUTH DAKOTA/SW MINNESOTA/NW IOWA
NATIONAL WEATHER SERVICE SIOUX FALLS SD
400 PM CDT THU AUG 28 2014

NOTE: "FAIR" INDICATES FEW OR NO CLOUDS BELOW 12,000 FEET WITH NO
SIGNIFICANT WEATHER AND OR OBSTRUCTIONS TO VISIBILITY.


SDZ038>040-050-052>070-282200-
SOUTHEAST SOUTH DAKOTA

CITY           SKY/WX    TMP DP  RH WIND       PRES   REMARKS
CHAMBERLAIN    CLOUDY    75  67  77 NW6       29.84S
HURON          CLOUDY    72  67  84 E8        29.84F
MADISON        MOCLDY    68  68 100 SE6       29.89F
MITCHELL       CLOUDY    75  69  81 E8        29.84F
SIOUX FALLS    CLOUDY    73  69  87 SE8       29.88F
WINNER         MOCLDY    78  67  68 NW8       29.85F
YANKTON        PTSUNNY   79  72  78 CALM      29.83F
$$

MNZ071-072-080-081-089-090-097-098-282200-
SOUTHWEST MINNESOTA

CITY           SKY/WX    TMP DP  RH WIND       PRES   REMARKS
FAIRMONT       CLOUDY    66  64  94 SE9       29.93F
JACKSON        CLOUDY    70  66  88 SE10      29.94S
LUVERNE        CLOUDY    70  68  94 SE7       29.90F FOG
MARSHALL       CLOUDY    66  64  94 E9        29.90F
MONTEVIDEO     RAIN      66  66 100 SE10      29.94S
PIPESTONE      DRIZZLE   70  66  88 SE6       29.91S
REDWOOD FALLS  CLOUDY    67  65  93 E8        29.93F
TRACY          CLOUDY    69  67  94 E6        29.92S FOG
WINDOM         DRIZZLE   70  66  88 SE9       29.93S
WORTHINGTON    CLOUDY    70  66  88 SE10      29.93S
$$

IAZ001>003-012>014-020>022-031-032-NEZ013-014-SDZ071-282200-
NORTHWEST IOWA

CITY           SKY/WX    TMP DP  RH WIND       PRES   REMARKS
DENISON        PTSUNNY   79  73  83 S10       29.88F
ESTHERVILLE    LGT RAIN  67  66  97 SE12      29.93F FOG
LE MARS        PTSUNNY   77  73  88 MISG      29.86F
ORANGE CITY    PTSUNNY   73  70  88 E6        29.88F
SHELDON        CLOUDY    72  70  94 E8        29.88F
SIOUX CITY       N/A     80  72  76 S6        29.86S
SPENCER        CLOUDY    70  67  90 SE10      29.91F
STORM LAKE     PTSUNNY   75  75 100 S10       29.90F
$$

ABBREVIATIONS USED IN REMARKS
   TC - TEMPERATURE IN CELSIUS
  WCI - WIND CHILL INDEX
   HX - HEAT INDEX
  VSB - VISIBILITY



USA.gov is the U.S. government's official web portal to all federal, state and local government web resources and services.